RH
36 39 48 64 72 73 68 67 72 79 84 85 82 78 74 68 59 47 35 26 24 24 28 29 30 32 33 35 36 38 40 41 42 41 40 40 40 42 42 44 47 50 52 54 57 58 60 61 62 63 64 64 64 64 62 61 61 62 65 67 69 70 69 62 58 60 72 89 95 93 86 77 86 93 84 73 83 96 94 89 89 92 92 96 97 97 94 92 91 90 87 82 77 73 72 74 74 74 73 69 83 97 96
34 37 46 58 65 67 66 69 75 81 86 81 76 70 61 50 39 30 24 24 25 27 30 31 32 34 35 36 38 40 42 43 44 44 43 44 45 46 47 49 52 54 57 58 60 62 64 66 67 68 69 68 66 64 61 62 64 68 71 72 74 73 69 61 55 55 64 83 93 96 95 74 82 96 94 73 74 84 83 88 94 98 98 96 97 98 98 92 93 96 95 91 89 85 78 77 74 76 92 82 78 79 83
34 38 46 54 60 63 67 72 78 82 85 79 68 55 40 31 26 24 24 26 30 33 32 36 35 34 35 37 39 41 43 44 45 46 47 49 50 52 53 55 58 60 62 63 65 67 70 72 74 74 75 74 70 66 62 63 68 73 76 78 79 76 67 57 54 58 66 77 86 92 96 83 78 80 88 74 68 69 76 79 85 91 94 91 94 98 99 96 97 99 97 96 96 94 88 90 79 73 90 81 73 68 69
36 40 46 52 58 63 70 76 80 81 78 65 50 35 26 24 24 27 29 32 35 37 35 36 36 35 36 37 40 42 44 44 45 47 50 53 55 56 58 61 64 66 68 70 71 72 74 77 79 80 79 78 74 68 65 66 71 76 80 84 83 76 63 53 54 56 54 64 73 81 87 89 81 72 68 70 67 68 83 85 79 74 76 88 95 99 99 97 92 86 86 92 96 97 93 98 92 83 77 76 73 69 66
34 40 46 52 58 64 70 74 73 68 58 43 32 26 25 26 28 31 33 35 36 35 34 35 36 36 37 38 40 42 43 44 46 48 52 56 58 60 64 68 70 73 75 76 77 78 78 80 81 81 80 78 74 72 70 71 75 80 86 90 84 73 57 48 43 42 44 55 66 72 66 83 88 84 76 76 70 68 83 94 90 80 74 91 98 99 97 95 90 88 90 94 97 99 98 99 96 92 86 88 88 88 84
30 36 42 48 53 57 60 58 53 45 35 29 26 27 29 30 31 32 34 34 34 34 35 36 38 38 39 40 40 42 42 44 46 50 54 58 60 64 68 72 76 78 80 80 81 81 81 81 80 80 78 76 75 74 76 78 82 85 86 89 81 66 50 43 45 50 51 52 51 51 54 60 67 72 76 75 64 58 76 94 93 81 67 92 100 99 97 92 89 90 99 100 100 100 98 96 88 84 92 96 98 99 97
24 28 33 37 40 40 40 36 31 27 24 26 28 31 33 33 34 34 35 35 36 37 38 40 41 42 42 42 42 42 43 44 47 50 54 58 61 66 71 75 78 80 82 82 82 82 82 81 80 80 78 77 77 77 80 85 89 90 89 84 72 57 42 36 51 66 60 58 58 60 62 61 57 56 65 68 61 58 71 92 97 88 69 92 99 98 96 91 86 87 97 98 98 99 98 96 89 87 100 100 100 98 97
19 21 24 26 26 26 25 24 23 23 24 26 29 32 36 36 35 34 36 38 39 41 42 44 45 46 46 46 45 45 45 47 49 52 55 58 62 66 72 76 79 82 83 84 84 84 84 84 83 83 82 82 82 82 84 87 90 90 88 75 60 45 34 33 52 71 67 66 67 71 78 74 68 65 72 76 77 75 67 90 98 94 81 90 92 92 90 89 89 92 99 98 98 98 98 96 92 92 98 98 97 97 96
17 18 19 19 20 20 21 22 23 24 24 26 28 30 34 35 35 35 37 40 42 45 47 48 49 50 49 48 47 47 48 50 52 54 57 60 64 68 73 77 80 83 85 86 86 87 87 87 87 86 87 88 87 87 86 86 84 80 73 58 46 37 32 33 47 62 70 76 77 79 85 83 77 72 69 86 92 92 85 84 86 88 85 86 86 86 82 84 84 86 97 99 97 94 94 96 98 98 94 94 96 96 95
18 18 18 19 19 20 21 22 23 24 24 26 26 28 30 32 34 36 39 42 44 47 50 51 51 51 49 48 47 48 50 52 54 57 60 64 68 72 76 79 82 85 87 88 88 89 89 89 89 89 90 90 90 88 85 80 72 63 52 42 36 34 34 33 44 57 64 77 80 80 86 85 82 78 74 80 90 95 89 84 82 83 82 80 78 76 74 78 79 83 95 98 96 93 96 99 100 98 94 93 96 98 96
20 20 20 21 21 21 22 22 23 24 24 25 27 29 30 32 35 38 40 43 46 48 50 51 50 48 46 45 45 47 50 52 54 58 61 65 70 74 78 82 84 86 87 87 88 88 88 89 90 90 90 90 88 84 76 65 54 44 36 33 32 33 34 30 40 56 72 74 78 82 87 86 80 76 76 75 78 83 84 84 83 82 82 80 80 79 76 76 76 79 87 92 92 92 99 99 99 96 90 94 96 98 97
23 22 23 23 23 23 23 23 24 24 24 26 29 31 33 35 38 40 43 45 47 48 48 48 46 44 42 42 44 46 48 50 53 56 60 64 69 74 78 82 84 85 85 86 86 87 88 89 89 88 87 84 79 72 61 48 39 33 31 31 31 31 32 28 39 58 79 74 78 84 84 82 78 77 81 83 85 87 90 89 90 90 88 84 81 79 80 79 79 80 86 88 90 92 95 96 96 94 92 93 94 95 97
24 24 24 24 24 24 24 24 25 26 27 29 32 34 36 38 41 43 45 46 47 47 46 44 42 42 40 40 42 43 46 48 50 53 56 60 64 69 74 78 80 82 83 84 85 87 88 86 84 80 76 70 64 56 47 38 33 30 30 29 29 29 29 29 38 56 76 81 82 81 77 82 83 84 86 88 92 94 94 96 96 96 95 87 82 82 84 86 85 84 85 86 86 88 88 90 92 92 90 89 88 90 92
25 25 25 25 24 24 24 26 26 27 29 31 33 36 38 41 43 46 47 48 47 46 44 42 40 40 38 38 39 40 42 44 46 48 51 54 58 62 66 70 74 76 78 79 80 80 78 74 68 61 55 50 46 40 35 31 29 28 28 27 27 27 26 32 45 62 78 82 83 82 80 84 85 87 90 92 94 90 78 90 97 98 96 92 89 87 88 92 92 90 89 87 86 84 85 86 87 87 87 84 82 82 85
26 26 26 26 25 25 25 26 28 29 30 32 34 37 40 43 45 47 48 48 47 46 43 42 40 39 38 36 36 37 38 40 42 43 46 48 51 54 58 61 64 66 67 67 66 63 59 53 46 41 37 34 32 30 28 28 27 27 27 27 27 27 27 38 52 68 81 81 82 82 81 86 87 89 93 90 86 79 72 81 92 99 99 96 93 92 95 96 95 94 93 90 87 85 85 86 84 83 82 81 80 79 79
27 27 26 26 26 26 26 28 30 31 32 33 36 38 42 44 47 48 49 48 47 45 43 42 42 40 39 37 36 36 36 37 38 40 41 43 46 48 51 53 54 55 54 52 49 45 41 36 33 30 28 28 28 28 28 28 28 28 27 27 27 27 29 40 53 66 79 78 78 80 82 86 88 89 88 79 79 84 89 82 90 100 100 95 92 92 95 92 90 89 88 88 88 89 88 86 82 78 77 77 76 74 72
28 28 28 27 27 26 27 29 31 32 33 35 37 40 42 45 47 49 49 48 47 46 44 44 43 42 41 39 36 35 35 36 36 37 38 40 42 43 45 46 45 44 42 40 37 34 32 30 28 28 28 28 28 28 28 28 27 26 26 26 26 26 27 42 57 68 74 75 76 78 80 84 90 90 81 78 86 96 93 83 90 100 100 95 90 85 85 81 80 79 80 81 83 85 84 80 76 73 71 71 70 69 68
30 29 29 29 28 28 28 30 32 34 35 37 39 41 43 46 48 49 50 49 48 47 46 46 45 44 43 40 38 36 35 36 36 36 36 37 38 39 39 39 38 36 34 32 31 29 28 28 29 29 29 28 28 27 26 26 24 24 24 24 26 27 30 48 62 70 70 76 79 80 83 86 92 92 80 86 94 98 92 84 89 96 98 95 91 86 78 74 73 73 74 76 76 77 77 76 73 69 65 64 63 63 62
31 30 30 30 30 30 30 31 33 35 37 39 40 42 43 45 48 49 50 50 50 50 50 48 47 45 43 42 40 38 36 36 36 36 36 36 36 35 35 34 32 31 30 29 28 28 29 29 29 28 27 26 25 24 23 22 22 22 22 23 24 28 36 52 62 68 71 77 81 83 85 91 95 94 83 88 93 96 94 86 85 89 92 90 88 83 77 73 70 69 72 74 74 74 74 76 74 70 64 59 56 53 51
32 31 31 31 31 31 31 32 34 36 38 40 40 42 42 44 47 49 51 51 52 53 53 52 49 46 44 43 42 41 39 37 36 36 36 35 34 33 32 30 30 29 28 29 29 29 29 28 26 25 24 22 22 21 20 20 20 20 21 22 24 28 38 53 63 69 74 77 79 81 84 90 94 94 86 88 88 88 89 85 84 84 85 83 80 77 74 71 69 68 69 70 71 72 72 72 72 70 66 60 55 50 47
32 32 31 31 31 31 32 32 34 35 37 38 40 41 42 44 46 50 52 53 54 55 56 54 52 48 46 44 44 42 41 39 37 36 34 33 32 31 30 29 29 30 30 30 29 28 26 24 22 20 19 18 18 18 18 18 19 20 20 22 24 30 39 54 66 74 75 78 79 80 84 84 88 90 86 85 84 83 83 83 83 83 82 80 77 75 72 69 67 65 63 64 64 65 66 66 67 67 65 62 59 56 51
33 32 32 31 31 31 32 32 33 34 36 37 40 42 43 45 48 52 54 55 56 57 58 56 54 51 48 46 45 44 42 40 38 36 34 33 32 31 30 31 31 31 30 27 25 23 20 19 18 16 16 16 16 16 16 17 18 19 20 21 24 29 39 52 64 74 75 77 78 80 82 80 82 84 83 82 82 81 80 81 81 81 80 78 76 75 72 68 63 58 56 55 56 58 59 59 60 60 60 60 59 56 52
34 34 33 32 32 32 33 33 34 34 35 37 40 42 45 48 52 54 57 58 58 58 60 58 57 54 51 48 46 44 42 40 38 37 35 34 33 33 32 32 30 27 24 22 20 18 17 16 15 14 14 14 14 15 16 16 18 18 20 20 22 26 36 49 62 70 74 74 76 77 77 77 78 78 78 78 77 76 76 76 76 76 76 71 68 66 66 64 60 55 50 47 46 47 49 50 51 51 52 52 50 47 44
34 35 34 34 34 34 34 35 35 36 36 38 40 43 47 52 55 58 60 60 61 62 62 62 60 58 55 51 48 45 42 40 38 37 36 35 34 34 31 28 25 22 20 18 17 16 15 14 13 13 13 13 13 14 15 16 17 18 19 20 21 24 33 48 60 67 72 72 73 74 73 73 74 73 71 68 66 67 68 68 68 68 70 68 65 61 58 58 57 54 46 42 40 39 39 38 38 37 37 36 34 32 31
35 36 36 36 36 36 37 37 38 38 38 40 42 44 49 54 58 61 63 64 64 65 66 66 64 62 59 56 52 48 44 42 40 38 38 36 34 30 27 24 22 20 18 17 16 15 14 13 12 12 12 12 13 14 15 16 17 18 18 19 20 22 27 42 54 62 68 68 69 69 68 68 67 65 62 60 58 57 58 58 58 60 64 63 60 55 50 49 48 46 40 36 32 30 28 26 24 23 23 23 22 22 22
36 37 38 38 38 38 39 40 40 40 40 42 43 46 49 55 60 64 66 67 68 68 69 69 68 66 63 60 55 51 46 44 42 40 38 34 30 26 24 21 20 18 17 16 15 14 13 12 12 12 12 13 14 14 15 16 17 18 18 19 20 21 24 33 44 54 60 61 61 61 60 60 58 55 53 49 46 45 44 45 48 50 51 48 46 43 40 38 36 34 31 26 23 21 19 18 18 18 18 18 18 18 18
36 38 39 39 39 40 40 42 42 42 42 44 45 47 50 56 61 66 69 70 70 71 72 72 72 70 66 62 57 52 48 45 42 39 34 30 26 24 22 20 19 18 17 16 14 14 13 12 12 12 12 13 14 15 16 16 17 18 18 19 20 20 22 26 34 42 49 51 52 51 50 48 46 45 42 38 36 34 33 32 33 34 34 33 32 31 30 28 26 24 22 20 18 17 16 16 16 16 17 17 16 16 16
36 38 39 40 40 41 42 43 44 44 45 46 48 50 52 57 62 67 70 72 72 72 74 74 74 73 69 64 58 52 47 43 39 35 31 27 24 22 20 19 18 17 16 15 14 13 13 12 12 12 13 14 14 15 16 16 17 18 18 19 19 20 21 22 26 30 36 38 40 40 40 39 38 36 34 32 30 28 26 26 25 25 26 26 24 24 22 22 20 20 18 18 17 16 16 15 14 14 15 14 14 14 13
35 38 39 40 41 42 44 46 46 47 47 49 51 54 56 60 64 68 72 74 74 74 74 76 76 74 71 64 58 51 45 40 36 32 28 25 23 21 20 19 18 17 16 15 14 13 13 12 12 13 13 14 15 16 16 17 17 18 18 19 19 20 20 21 22 24 26 28 29 30 30 30 30 29 28 27 26 25 24 22 22 22 22 22 20 19 18 18 19 18 18 17 16 15 14 13 12 12 12 12 12 12 11
34 37 39 40 42 44 46 48 49 49 50 52 55 58 61 64 66 69 72 75 76 77 77 78 77 75 71 65 58 50 43 38 34 30 26 24 22 21 20 20 18 17 16 15 14 13 13 12 13 13 14 14 15 16 17 17 18 18 18 19 19 20 20 20 20 21 21 22 23 23 24 24 24 24 24 23 22 22 22 20 20 20 20 20 19 18 18 18 18 18 17 16 14 13 12 12 11 11 11 11 11 10 10
34 37 39 40 42 46 49 51 52 52 52 54 57 61 65 66 68 70 72 76 79 81 82 81 78 76 71 64 57 49 42 36 31 27 24 23 22 22 21 20 19 17 16 15 14 13 13 13 13 14 14 15 16 17 18 18 18 18 19 19 20 20 20 20 20 20 20 20 20 20 21 21 21 21 20 20 20 20 20 20 20 19 19 19 19 19 19 18 17 16 15 14 13 12 12 12 12 11 11 11 11 11 10
35 38 40 42 44 48 53 55 54 54 54 56 59 62 67 68 70 71 72 76 79 82 83 82 78 74 70 64 57 49 42 34 29 26 24 23 23 23 22 20 19 17 16 15 14 13 13 13 13 14 15 16 16 17 18 18 19 19 19 19 20 20 20 20 20 20 20 20 20 20 20 20 19 19 19 18 18 18 18 18 18 18 18 18 19 20 19 17 16 15 14 14 13 13 13 12 12 12 11 11 10 10 10
38 42 44 44 47 51 57 58 58 56 56 58 61 64 68 70 71 72 72 74 77 79 80 78 76 74 71 65 58 50 40 33 28 24 24 24 24 24 22 21 19 17 16 15 14 14 13 13 14 14 15 16 17 17 18 18 19 19 19 19 19 19 19 19 19 19 19 18 18 18 18 18 18 17 17 16 16 16 16 16 16 16 17 17 18 17 16 15 14 14 13 13 13 13 13 13 12 12 11 10 10 10 10
43 47 50 50 52 56 61 61 60 58 58 60 63 66 69 71 72 73 73 74 75 76 76 76 74 74 72 67 60 50 40 32 27 25 26 26 26 24 22 20 18 17 15 14 14 14 14 14 14 15 16 16 17 18 18 18 19 19 18 18 18 18 18 17 17 17 17 17 16 16 16 16 15 14 14 14 13 13 13 13 14 14 14 14 14 13 13 13 13 13 13 13 14 14 14 13 13 12 12 11 10 10 10
49 55 58 58 59 61 64 65 64 62 61 62 65 68 71 74 74 74 74 74 74 74 75 75 74 74 73 68 60 50 38 30 26 26 27 27 26 24 22 20 18 16 15 14 14 14 14 15 15 16 16 16 17 18 18 18 18 18 18 17 16 16 16 16 15 15 14 14 14 14 13 12 12 12 11 11 11 10 10 10 10 10 11 11 12 12 12 12 12 12 12 13 14 15 16 15 14 14 13 12 11 11 11
54 62 67 67 67 68 68 69 68 66 64 64 66 68 72 75 76 76 75 74 74 74 75 75 76 75 74 68 60 48 37 30 27 27 29 29 27 25 22 19 17 16 14 14 14 14 15 15 16 16 16 16 17 17 18 18 18 18 17 16 15 15 14 14 13 13 12 12 11 11 10 10 10 10 10 10 10 9 9 9 10 10 10 10 11 11 12 12 12 13 13 14 15 16 18 18 18 16 15 14 13 12 12
57 66 74 76 76 74 74 74 72 70 67 66 66 67 71 75 77 78 77 76 74 75 76 76 76 76 76 69 60 48 35 28 28 29 31 30 28 26 22 19 17 15 14 14 14 14 15 15 16 16 16 16 16 16 17 17 17 16 16 15 14 14 13 12 12 11 10 10 10 10 10 10 10 9 9 9 9 10 10 10 10 10 10 11 11 12 12 12 12 13 13 14 15 16 19 20 20 19 17 16 14 14 14
55 67 77 81 82 81 80 78 76 73 71 68 67 66 68 74 77 80 79 77 76 76 76 77 78 78 77 70 60 46 33 28 29 31 32 31 28 26 22 19 16 15 14 14 14 14 15 15 16 16 16 16 16 16 16 16 16 15 15 14 13 12 12 11 10 10 10 10 10 10 10 10 10 10 10 10 10 10 10 10 10 11 11 11 12 12 12 12 12 12 12 13 14 16 18 21 22 21 20 18 16 16 16
51 63 75 82 86 86 84 82 79 77 74 71 68 67 68 73 77 80 81 79 78 77 78 78 80 80 78 71 58 44 32 29 30 32 33 31 29 26 22 19 16 15 14 14 14 14 14 15 15 15 15 15 14 14 14 14 14 14 14 13 12 12 11 10 10 10 10 10 10 10 10 10 11 11 11 11 11 11 11 11 12 12 12 12 12 12 12 12 12 12 12 12 13 15 17 19 21 22 21 20 19 18 18
46 56 68 78 85 87 85 84 82 80 77 74 71 69 68 72 77 81 82 81 79 78 79 80 81 81 80 72 58 43 31 30 32 34 34 32 29 26 22 19 16 15 14 14 14 14 14 14 15 14 14 14 13 13 13 13 13 13 13 12 12 11 11 10 10 11 11 11 11 11 12 12 12 12 12 12 12 12 12 12 12 12 12 12 12 12 12 12 12 12 12 12 13 14 16 18 20 21 22 22 21 21 21
40 49 60 70 78 83 84 84 84 82 80 77 74 72 70 72 76 80 82 82 81 80 80 81 82 82 82 72 58 42 31 31 33 34 34 32 29 26 22 19 17 15 14 14 14 14 14 14 14 14 13 12 12 12 12 12 12 12 12 12 12 11 11 11 11 11 11 12 12 12 12 12 12 12 12 12 12 12 12 12 12 12 12 12 11 11 11 11 12 12 12 12 12 13 15 16 18 20 22 22 23 23 24
36 44 54 63 71 77 81 82 83 83 82 80 77 74 72 72 74 78 82 83 82 81 82 83 83 83 83 73 57 42 32 32 34 35 35 33 30 26 23 19 17 15 14 14 14 14 14 14 14 13 12 12 12 11 11 12 12 12 12 12 11 11 11 11 12 12 12 12 12 12 12 12 13 13 13 13 13 13 13 12 12 12 12 11 11 11 11 11 12 12 12 12 12 13 14 16 17 18 20 22 24 25 27
33 40 50 58 65 71 76 79 82 83 82 81 79 77 75 74 75 78 83 84 84 83 83 84 84 84 83 73 57 42 33 34 36 36 36 33 30 27 24 20 18 16 14 14 14 14 14 14 14 13 12 12 12 12 12 12 12 12 12 12 12 12 11 12 12 12 12 12 12 12 13 13 13 13 13 13 13 13 12 12 12 12 11 11 11 11 12 12 12 12 12 12 12 12 14 15 16 18 19 21 24 26 30
32 39 48 56 62 67 72 76 79 82 82 82 80 79 78 76 78 80 84 86 85 85 84 84 85 85 83 73 57 42 33 36 37 37 36 34 30 27 24 21 18 16 15 14 14 14 14 14 14 14 13 13 13 12 12 12 12 12 12 12 12 12 12 12 12 12 13 13 13 13 13 13 13 13 13 13 13 12 12 12 12 11 11 11 11 11 12 12 12 12 12 12 12 13 13 15 16 17 18 20 23 27 32
35 40 48 56 61 65 69 74 77 80 82 81 81 81 81 80 81 83 86 87 86 86 85 85 86 86 84 73 57 42 34 36 38 38 36 34 31 28 25 22 19 17 16 15 14 15 15 15 14 14 14 14 14 13 12 12 12 12 12 12 12 12 12 12 13 13 13 13 13 13 13 13 13 13 13 13 12 12 12 11 11 10 10 10 10 11 11 12 12 12 12 13 13 13 13 14 16 17 18 20 22 26 32
40 42 49 56 60 64 66 71 74 78 80 82 82 82 82 82 83 85 87 87 87 86 85 85 86 86 84 72 56 42 35 37 38 38 37 35 32 29 26 23 20 18 16 16 15 15 15 15 15 15 15 15 15 14 13 13 13 13 12 12 12 12 13 14 14 14 14 13 13 13 13 13 13 12 12 12 12 11 11 10 10 10 10 10 10 10 10 11 11 12 12 12 13 13 13 14 16 16 18 19 22 25 30
48 48 51 56 60 62 64 69 73 76 79 81 81 81 81 81 82 84 85 86 86 86 84 84 86 87 85 72 56 43 36 37 38 39 38 36 33 30 26 24 21 19 18 16 16 15 15 15 15 15 16 16 16 15 14 14 14 13 13 13 13 13 14 14 14 14 14 14 14 14 13 13 13 12 12 12 11 11 10 10 10 10 10 10 10 10 10 10 10 11 11 12 12 13 14 14 15 16 17 19 22 24 28
58 56 56 59 61 63 64 68 71 74 78 78 78 77 76 76 77 79 82 84 85 85 85 84 86 88 87 72 57 44 37 37 38 39 39 37 35 31 27 24 22 20 19 18 16 16 15 15 15 15 16 16 17 17 16 14 14 14 13 14 14 14 15 15 15 15 14 14 14 14 14 14 13 13 12 12 11 11 10 10 10 10 10 10 10 10 10 10 10 10 10 11 12 13 14 14 15 16 17 18 20 23 26
68 66 65 66 67 67 67 68 71 74 77 77 76 74 72 73 74 77 81 84 86 87 86 86 88 90 89 74 58 47 40 38 38 39 39 38 35 32 29 26 22 20 20 20 18 17 16 16 16 16 16 17 18 18 18 16 15 14 14 14 14 15 16 16 16 15 15 15 15 15 15 14 14 14 13 12 12 11 10 10 10 10 10 10 10 10 10 10 10 10 10 11 12 12 14 14 15 16 16 18 20 22 24
76 75 74 74 74 73 71 70 72 74 77 78 77 76 76 76 78 80 84 86 88 89 88 88 89 90 89 74 60 48 42 39 39 40 40 38 36 33 31 29 26 23 20 20 20 19 18 18 18 18 18 18 18 19 19 18 17 16 16 16 16 16 17 17 17 16 16 16 16 16 16 16 15 14 14 13 12 12 11 10 10 10 10 10 10 10 10 10 10 10 10 10 11 12 13 14 15 16 16 17 18 20 22
84 84 84 82 80 78 75 74 73 74 76 78 80 82 82 82 83 84 86 88 90 90 89 89 90 90 88 76 62 50 42 40 40 40 40 39 37 35 32 30 27 24 22 22 22 21 20 20 20 19 19 19 20 20 21 20 20 19 18 18 18 18 18 18 18 17 16 16 16 16 17 16 16 15 14 14 13 12 12 11 10 10 10 10 10 10 10 10 10 10 10 11 11 12 12 14 15 16 17 17 18 19 21
89 89 90 89 87 83 78 76 74 74 74 78 81 83 84 85 85 86 86 88 90 90 90 89 90 90 88 78 65 52 44 40 40 40 41 40 38 36 32 28 26 25 25 24 24 24 23 22 22 22 21 21 21 22 22 22 21 20 20 20 20 20 19 19 18 18 17 17 17 17 18 17 16 16 15 15 14 13 12 11 11 10 10 10 10 10 10 10 11 11 11 11 12 12 12 13 14 15 16 17 18 18 20
92 93 94 94 92 88 83 80 77 75 74 76 77 78 80 81 83 84 85 88 90 92 92 90 91 92 91 81 67 54 46 42 40 40 42 40 39 36 32 28 25 24 24 24 26 26 27 26 25 25 24 24 23 23 24 24 23 22 22 21 20 20 20 20 19 18 18 18 18 18 18 18 17 16 16 15 14 14 12 12 11 10 10 10 10 11 11 11 11 12 12 12 12 13 13 13 14 14 16 16 17 18 19
94 95 96 96 95 93 89 84 80 77 74 74 73 74 74 76 78 81 84 88 90 92 92 92 92 92 95 87 74 60 49 45 42 41 41 42 40 37 32 30 28 28 29 27 25 24 27 28 28 28 28 28 26 26 26 26 24 24 22 22 21 21 21 20 20 19 18 18 18 19 19 19 18 17 16 16 14 13 12 12 11 11 11 11 11 11 11 12 12 12 13 13 13 14 14 14 14 14 15 16 17 18 18
95 96 96 97 96 96 94 90 85 80 76 74 72 72 72 73 74 76 80 85 88 90 92 92 92 92 95 93 83 69 55 49 45 42 42 42 40 39 35 33 32 30 30 28 26 26 26 28 29 29 29 29 28 27 27 26 26 24 24 24 23 22 22 21 20 19 18 19 19 20 20 20 19 18 17 16 14 13 12 11 11 11 11 11 11 12 12 12 12 13 13 14 14 14 14 14 14 14 15 16 16 17 18
96 97 96 97 97 97 96 94 91 86 80 76 73 71 70 70 71 73 77 83 87 90 92 92 92 92 93 95 89 77 60 51 46 43 42 42 42 40 39 36 32 30 30 29 29 29 28 29 28 27 27 28 28 28 28 28 27 26 26 26 24 24 22 21 20 18 18 19 20 20 20 20 19 18 17 15 14 13 12 11 11 11 12 12 12 12 12 12 13 14 14 14 14 14 15 15 15 15 15 16 16 17 18
98 98 98 97 97 97 97 97 95 91 85 78 74 70 68 69 71 74 79 84 88 91 92 92 92 93 94 95 92 81 61 50 44 42 41 42 42 41 41 39 36 33 31 30 30 30 30 29 28 27 27 29 29 28 28 28 28 27 27 26 24 24 22 21 20 19 18 19 20 21 20 20 19 18 16 15 14 12 12 11 11 12 12 12 12 12 13 13 14 14 14 14 14 15 15 15 15 16 16 16 17 18 19
98 98 98 98 98 98 98 97 96 94 89 82 76 71 68 70 73 76 80 85 88 91 92 93 94 95 97 97 94 84 61 48 43 42 42 42 42 42 42 41 40 37 35 33 32 32 32 31 30 29 28 29 30 30 29 28 27 27 27 26 26 24 23 22 21 20 19 20 20 20 20 19 18 17 16 14 13 12 12 12 12 12 12 12 12 13 13 14 14 14 14 15 15 15 15 15 15 16 16 17 18 18 20
98 98 98 98 98 98 98 97 97 95 92 85 78 73 70 71 72 74 78 84 88 90 92 93 95 96 98 98 96 87 65 50 44 43 43 42 42 42 42 42 42 40 38 37 36 35 34 33 32 32 30 29 30 31 31 30 28 28 28 27 26 26 24 23 22 21 20 19 20 20 20 19 18 16 15 14 13 12 12 12 12 12 12 12 13 13 14 14 14 15 15 15 14 14 14 14 15 15 16 16 17 18 19
98 98 98 98 98 98 98 98 97 95 93 87 81 76 72 70 71 73 78 83 87 90 92 94 96 98 99 99 94 84 67 54 47 45 45 44 43 43 42 42 42 42 40 40 38 38 37 36 34 34 32 30 29 30 32 32 31 29 28 28 27 26 24 23 22 21 20 19 19 19 20 19 17 15 14 13 13 13 12 12 12 12 12 13 14 14 15 15 15 15 15 15 14 14 14 14 14 14 15 16 16 17 18
98 98 98 98 97 97 98 98 97 96 94 89 83 78 73 71 71 73 78 83 87 90 92 95 97 98 99 98 92 80 67 58 52 49 48 46 45 44 42 42 43 42 42 40 40 40 39 38 37 35 34 32 31 30 28 30 31 30 29 28 27 26 24 24 22 21 20 19 19 19 19 17 16 14 14 13 13 13 13 13 12 12 13 14 14 15 15 16 16 16 16 15 15 14 14 14 14 14 14 14 15 16 17
Wind_Speed
14 16 17 17 16 14 13 13 13 13 12 10 8 6 5 4 4 4 5 7 8 9 10 10 10 10 9 9 8 8 8 7 6 6 5 5 5 5 5 5 6 6 6 6 6 5 5 4 4 4 4 5 5 5 5 6 6 7 7 8 10 10 10 9 8 7 7 7 6 5 6 6 5 5 5 6 6 5 6 6 5 5 5 4 4 4 4 4 4 4 2 2 3 4 5 4 3 3 4 3 3 5 7
14 16 17 17 16 15 14 13 13 13 11 9 8 6 6 6 6 7 9 10 10 11 11 10 10 9 9 8 8 7 7 6 6 5 4 4 4 4 4 4 4 4 5 4 4 4 4 4 3 3 4 4 4 4 4 5 6 7 8 9 10 10 9 9 8 7 8 7 6 5 5 5 5 4 5 5 5 4 4 4 3 3 4 4 5 5 4 4 5 4 3 3 3 4 5 4 3 2 3 4 5 5 5
15 16 17 16 16 15 14 14 13 12 11 9 8 7 7 8 9 10 11 12 12 11 11 10 9 8 8 8 7 7 6 6 5 4 4 3 3 3 3 3 3 3 3 3 3 3 3 3 3 3 3 4 4 4 4 5 6 7 8 9 10 9 9 8 7 6 7 6 5 5 4 5 5 4 4 5 4 4 4 4 2 2 4 6 7 6 4 3 3 3 4 4 3 2 3 4 3 2 1 4 5 5 4
15 16 17 16 16 15 15 14 13 12 10 9 9 9 10 11 12 12 12 12 11 10 10 9 8 8 7 7 7 7 6 6 5 4 3 3 3 2 2 2 2 2 2 2 2 2 2 2 2 3 3 3 4 5 6 6 6 7 8 9 9 8 8 8 6 6 5 5 4 4 4 4 5 5 5 5 4 4 4 4 4 3 4 7 7 4 0 2 3 5 6 6 4 1 1 1 3 4 3 4 5 5 5
16 17 17 17 16 15 15 14 12 11 10 10 11 12 12 12 12 12 11 11 10 9 9 8 8 7 7 7 7 7 6 5 4 4 4 3 3 2 2 2 2 2 1 1 1 1 1 1 1 2 2 3 4 5 6 7 7 7 7 8 7 7 7 6 6 5 5 4 3 3 3 4 4 4 4 4 4 4 3 3 3 3 4 6 7 5 3 3 5 6 6 5 4 3 2 1 2 3 4 5 4 4 3
16 17 17 17 16 15 14 13 12 11 11 12 13 13 13 12 11 11 10 9 9 9 9 8 8 7 7 7 7 7 6 5 5 4 4 4 3 3 3 2 2 2 2 1 1 1 0 0 0 1 2 3 4 5 6 6 6 6 6 6 6 6 6 6 6 5 5 4 4 3 3 3 3 3 3 3 3 3 3 3 2 1 1 3 4 4 4 5 5 4 3 1 4 5 3 1 3 3 3 4 3 2 1
17 17 17 16 16 15 14 13 12 12 13 13 13 12 11 10 10 10 9 9 9 9 9 8 7 7 7 7 7 6 6 5 5 5 5 5 4 4 3 3 3 2 2 2 1 1 1 1 1 1 2 3 4 5 5 5 5 5 5 5 5 6 6 5 5 5 6 6 6 5 5 4 3 3 3 3 2 2 2 3 3 0 2 1 2 3 3 4 4 3 3 3 4 5 3 0 3 2 2 4 5 5 3
16 16 16 16 15 15 14 14 13 13 13 13 12 11 10 9 9 10 10 9 9 9 8 8 7 7 7 7 6 6 6 5 5 6 6 5 5 5 4 4 3 3 3 2 2 2 2 2 2 2 3 3 4 4 5 4 4 4 5 5 5 5 5 5 4 5 6 6 6 6 5 5 4 2 2 2 2 2 2 2 2 3 4 4 4 4 4 4 4 2 4 3 1 1 1 1 2 2 1 1 3 4 5
16 16 16 16 15 15 15 14 14 13 12 11 10 9 9 9 9 9 9 9 9 8 8 7 7 7 6 6 6 5 5 5 6 6 6 6 5 5 5 4 4 3 3 3 3 2 2 2 2 2 3 3 4 4 5 5 5 5 5 5 5 5 5 4 3 3 4 5 6 5 5 5 4 3 1 1 2 2 3 5 6 6 7 7 7 7 7 7 6 4 1 1 2 2 2 1 1 2 3 3 3 3 3
15 15 15 15 15 14 14 14 13 12 10 9 8 8 8 8 8 8 8 8 8 7 7 7 6 6 6 5 5 5 5 5 5 6 6 6 6 6 5 5 4 4 4 3 3 3 3 2 3 3 3 4 4 5 5 5 5 5 5 5 5 5 5 4 3 3 3 3 4 4 4 5 4 3 2 1 1 3 5 7 8 9 10 10 9 9 8 8 8 6 4 3 3 1 1 2 1 2 4 4 3 2 1
15 15 15 14 14 13 13 12 11 10 9 8 8 8 7 7 7 7 7 7 7 7 6 6 5 5 4 3 3 4 4 5 5 6 6 6 6 6 6 6 5 5 4 4 4 3 3 3 4 4 4 5 5 5 5 5 5 5 5 5 5 5 5 4 3 3 3 3 3 3 4 4 4 4 3 2 4 5 6 7 8 9 9 8 7 7 7 7 7 6 6 5 4 2 1 1 1 3 5 4 3 3 3
15 14 14 13 13 12 11 10 9 9 8 8 8 7 7 7 7 7 6 6 6 6 5 5 4 3 3 2 3 3 4 5 5 5 6 6 6 6 6 6 6 6 5 5 5 5 5 5 5 6 6 6 6 6 6 6 6 6 6 6 6 6 6 5 3 3 3 3 3 3 4 4 4 4 4 3 3 4 5 5 6 6 6 7 7 7 7 6 6 5 4 4 4 4 4 4 5 5 4 4 4 5 5
14 14 13 12 12 11 10 9 8 8 7 7 7 7 7 7 7 6 6 6 6 5 5 4 3 3 2 2 2 3 4 4 5 5 5 6 6 6 6 6 6 6 6 6 6 6 6 6 6 7 7 7 7 7 7 6 6 6 7 7 7 7 6 5 3 3 3 3 3 4 4 4 4 4 4 3 3 2 3 2 3 5 6 6 6 5 4 4 4 4 4 4 5 6 7 6 6 5 5 5 6 6 7
13 13 12 11 11 10 9 9 8 8 7 7 7 7 7 7 7 6 6 6 5 5 4 4 3 3 3 3 3 3 3 4 4 5 5 5 6 6 6 6 6 6 6 6 6 6 6 6 7 7 7 7 8 8 8 8 8 8 8 8 8 7 6 5 3 3 3 3 3 4 4 4 4 4 3 2 2 2 1 0 1 2 3 4 3 2 2 2 2 3 3 4 5 6 6 7 7 7 6 7 7 8 8
12 12 11 10 10 9 9 9 8 8 7 7 7 7 7 7 7 6 6 6 5 5 4 4 4 3 3 3 3 3 3 3 4 4 5 5 5 5 5 5 5 5 6 6 6 6 6 6 7 7 7 8 8 9 9 9 9 9 9 9 9 8 6 4 3 3 3 3 3 3 3 3 3 3 2 3 3 3 1 2 2 2 3 3 3 4 4 3 1 2 2 3 4 4 5 6 7 8 8 9 9 9 9
12 11 11 10 9 9 8 8 8 8 7 7 7 7 7 7 6 6 6 6 5 5 4 4 4 3 3 3 3 3 3 3 3 4 4 4 4 4 5 5 5 5 5 5 5 6 6 7 7 8 8 9 10 10 11 11 11 11 10 10 9 8 6 4 4 3 3 3 3 2 2 2 2 3 3 3 3 2 1 2 4 7 7 4 2 2 3 2 0 1 2 2 2 3 3 4 5 7 8 9 9 9 10
12 11 11 10 9 8 8 8 8 8 7 7 7 7 6 6 6 6 6 6 5 5 4 4 4 3 3 3 3 3 3 3 3 3 4 4 4 4 4 4 4 5 5 5 6 6 7 8 8 9 10 10 11 12 12 12 12 11 11 10 9 8 6 4 4 3 3 2 2 1 2 1 2 2 2 1 1 3 3 3 4 6 6 3 1 1 1 2 3 3 2 2 2 3 3 4 5 5 6 7 8 9 9
12 11 11 10 9 9 8 8 8 8 8 7 7 7 6 6 6 6 6 5 5 5 4 4 3 3 3 3 3 3 2 3 3 3 3 3 3 3 3 4 4 5 5 6 7 7 8 9 10 11 11 12 12 13 13 12 12 11 10 10 8 7 5 4 3 3 3 2 2 1 0 0 1 1 0 2 4 4 3 3 2 1 1 1 2 3 4 5 5 5 5 5 4 4 4 5 5 6 6 6 7 7 8
12 11 11 10 10 9 8 8 8 8 8 8 7 7 6 6 6 5 5 5 5 4 4 4 3 3 3 2 2 2 2 2 2 2 2 3 3 3 4 4 5 6 6 7 8 9 10 11 12 12 13 13 13 13 13 12 11 10 10 9 7 6 4 4 3 3 3 3 3 2 1 1 1 1 3 4 4 4 4 4 5 5 5 5 5 6 6 7 7 7 7 7 7 6 6 6 7 7 8 8 8 8 9
12 12 11 11 10 9 9 8 8 8 8 8 8 7 7 6 5 5 5 4 4 4 4 3 3 2 2 2 2 2 2 2 2 2 3 3 3 4 4 5 6 7 8 9 10 11 12 13 13 13 13 13 13 13 12 11 10 10 9 8 7 5 4 3 3 3 3 4 4 3 2 2 2 2 4 5 5 5 5 6 6 6 6 6 7 8 8 9 9 9 9 8 8 8 8 8 9 9 10 10 10 11 11
13 12 12 11 11 10 9 9 8 8 8 8 8 7 6 6 5 5 5 4 4 4 3 3 3 2 2 2 2 2 2 3 3 3 3 4 4 5 6 6 8 9 10 11 12 13 14 14 14 14 13 13 12 12 11 10 9 9 8 7 6 5 4 3 3 3 3 4 4 5 4 3 2 2 4 6 6 6 7 7 8 8 8 8 8 9 9 10 10 10 10 10 10 10 10 10 10 11 11 12 12 12 12
14 13 12 11 11 10 9 9 8 8 8 8 7 7 6 5 5 5 5 4 4 4 4 3 3 3 3 3 3 4 4 4 4 4 5 5 5 6 7 8 9 11 12 13 13 14 14 14 13 13 13 12 11 11 10 9 8 8 7 6 5 5 5 4 4 4 3 4 5 5 6 6 5 5 6 7 8 8 8 9 9 10 10 11 11 10 10 10 11 11 11 11 11 11 11 11 12 12 12 13 13 13 13
14 14 13 12 11 10 10 9 9 8 8 7 7 7 6 6 6 5 5 5 5 4 4 3 3 3 3 4 5 5 5 5 5 6 6 6 7 7 8 9 11 12 12 13 13 13 13 13 12 12 12 11 10 10 9 8 8 7 6 6 6 5 5 6 6 5 5 5 6 6 7 7 7 7 8 8 9 9 10 10 11 11 11 12 12 12 12 11 12 13 13 12 12 12 12 12 12 13 13 13 14 14 14
15 14 13 12 11 11 10 10 9 8 8 7 7 7 7 7 7 6 6 5 5 4 4 4 4 4 4 5 5 5 5 6 6 6 6 7 8 8 9 10 11 12 12 13 13 13 12 12 11 11 10 10 9 9 8 8 7 7 6 6 6 6 6 6 6 6 6 7 7 7 8 8 9 9 9 9 10 10 11 12 12 12 11 12 12 13 13 12 12 13 13 13 13 13 12 12 12 12 13 13 13 13 13
16 15 14 13 12 11 11 10 10 9 8 8 7 7 7 7 7 7 7 6 5 5 4 4 4 4 5 5 5 5 6 6 6 6 7 7 8 9 10 11 12 12 12 12 12 12 11 11 10 10 9 9 8 8 8 7 7 7 6 6 6 6 7 7 7 7 7 7 8 8 9 9 10 10 10 10 11 11 11 12 12 12 12 11 12 12 12 12 13 13 13 13 13 13 12 12 12 12 12 12 12 12 12
16 15 14 13 13 12 11 11 11 10 9 8 8 7 7 7 7 7 7 6 5 5 5 4 5 5 6 6 6 6 6 6 7 7 7 8 9 10 11 11 12 12 12 12 12 11 11 10 10 9 8 8 7 7 7 7 7 7 6 6 6 6 7 8 8 8 8 8 8 8 9 9 9 10 10 10 10 10 11 11 11 10 11 11 12 12 12 12 13 13 13 13 12 12 12 12 12 12 12 12 12 12 12
17 16 15 14 13 13 12 12 11 11 10 9 8 7 7 7 7 7 7 6 6 5 5 5 5 6 6 7 7 7 7 7 7 8 8 9 10 11 11 12 12 12 11 11 11 11 10 10 9 8 8 7 7 6 6 7 7 6 6 6 6 6 7 8 9 9 8 8 9 9 9 9 9 9 9 9 9 9 9 10 10 10 11 11 11 12 12 12 12 12 12 12 11 11 11 11 11 11 11 12 12 12 12
18 17 16 15 14 13 13 12 12 11 10 9 8 8 7 7 7 7 7 6 6 6 5 6 6 6 7 7 7 8 8 8 8 8 9 10 10 11 11 11 11 11 11 11 11 11 10 9 9 8 7 6 6 6 6 6 6 6 6 6 6 6 7 8 9 9 9 9 9 9 9 9 9 9 9 9 9 9 9 9 9 10 10 10 11 11 11 11 12 12 12 11 11 11 11 11 11 11 11 12 12 12 12
18 18 17 16 15 14 13 13 12 11 11 10 9 8 8 7 7 7 7 6 6 6 6 6 6 7 7 8 8 8 8 8 9 9 10 10 11 11 11 11 11 11 11 11 10 10 10 9 8 7 6 5 5 5 6 6 6 6 6 6 6 6 7 7 8 9 10 10 10 10 10 10 10 10 10 10 10 10 10 10 10 10 10 10 11 11 11 11 11 11 11 11 11 11 11 11 11 11 12 12 12 12 13
19 18 18 17 16 15 14 13 13 12 11 10 10 9 8 7 7 6 6 6 6 6 7 7 7 7 8 8 8 9 9 9 9 10 10 11 11 11 11 11 11 10 10 10 10 10 9 8 8 7 6 5 5 5 5 6 6 6 6 6 6 6 7 7 8 8 9 10 10 10 10 10 10 10 10 10 10 10 10 10 10 10 10 10 11 11 11 11 11 11 11 11 12 12 12 12 12 12 12 12 13 13 13
20 19 18 18 17 15 15 14 13 12 12 11 10 9 8 7 6 6 6 6 6 7 7 8 8 8 8 8 9 9 9 9 10 10 10 11 11 11 11 11 11 10 10 10 10 9 9 8 7 6 5 5 4 5 5 6 6 6 6 6 6 6 7 7 7 8 8 9 9 10 10 10 10 10 10 10 10 10 10 10 10 10 10 10 10 11 11 11 11 11 12 12 12 12 13 13 12 12 12 13 13 13 13
20 20 19 18 17 16 15 14 14 13 12 12 11 10 8 7 6 5 6 6 7 8 8 9 9 9 8 9 9 9 9 9 10 10 10 10 10 10 11 11 11 10 10 10 9 9 8 8 7 6 5 4 4 5 5 5 6 6 6 6 6 6 6 7 7 8 8 8 9 9 9 10 10 10 10 10 10 10 9 9 9 9 9 10 10 10 11 11 11 12 12 12 13 13 13 13 13 13 13 13 13 13 13
21 20 20 19 18 17 16 15 14 14 13 12 11 10 9 8 6 6 6 7 8 9 9 9 9 9 9 9 9 9 9 10 10 10 10 10 10 10 11 11 11 10 10 9 9 9 8 7 7 6 5 4 4 5 5 5 6 6 6 6 6 6 6 7 7 7 8 8 8 8 9 9 9 9 9 9 9 9 9 9 9 9 9 10 10 11 11 12 12 12 12 13 13 13 14 14 14 14 14 14 14 14 14
22 21 20 19 18 17 16 16 15 14 13 13 12 11 10 9 7 7 6 7 8 9 9 9 9 9 9 9 9 9 10 10 10 10 10 10 10 10 10 11 11 10 10 9 9 8 8 7 7 6 5 5 4 5 5 6 6 6 7 7 6 6 6 6 7 7 7 7 7 7 7 8 8 8 8 8 8 8 8 9 9 9 10 10 11 11 12 12 12 12 13 13 13 13 14 14 15 15 15 14 14 14 14
22 22 21 20 19 18 17 16 15 14 14 13 13 12 11 10 9 8 7 8 8 8 9 9 9 9 9 9 9 9 10 10 11 10 10 10 10 10 10 11 11 10 10 9 8 8 7 7 6 6 5 5 4 5 5 6 6 7 7 7 6 6 6 6 6 5 5 5 6 6 6 7 7 7 8 8 8 8 8 9 9 10 10 11 11 12 12 12 12 13 13 13 13 13 14 15 15 15 15 15 15 15 14
24 23 22 21 20 19 18 16 15 15 14 14 13 13 12 11 10 9 8 8 8 8 8 8 9 9 9 9 9 10 11 11 11 10 10 10 10 10 10 10 10 10 10 9 8 8 7 7 6 6 6 5 5 5 5 6 6 7 7 7 6 5 5 5 4 4 4 5 5 5 6 7 7 7 8 8 8 8 9 9 10 10 11 11 11 12 12 12 13 13 13 13 13 13 14 14 15 16 16 16 16 15 15
25 24 23 22 21 20 18 17 16 16 15 15 14 13 13 12 12 11 10 9 9 8 8 9 9 9 9 9 10 10 11 11 11 10 10 10 10 10 10 10 10 10 9 9 8 7 7 7 6 6 6 6 5 5 6 6 6 7 7 6 6 5 4 4 4 4 4 5 5 6 6 7 7 8 8 8 9 9 9 9 9 10 10 11 11 12 12 13 13 13 13 13 13 13 13 14 14 15 16 16 16 16 15
27 26 24 23 22 20 19 18 17 17 16 15 15 14 14 13 13 12 11 10 9 9 9 9 9 10 10 10 10 11 11 11 11 10 10 11 11 11 10 10 9 9 9 9 8 7 7 7 6 6 6 6 6 6 6 6 7 7 7 6 5 4 4 4 4 4 5 5 6 6 7 7 8 8 8 8 9 9 9 9 9 10 10 11 12 12 13 13 13 13 13 13 12 12 12 13 14 15 16 16 17 16 16
28 27 26 25 23 22 20 19 18 18 17 17 16 15 14 14 13 13 12 11 10 10 10 10 10 10 10 10 11 11 12 11 11 11 11 11 11 11 10 10 9 9 9 9 8 8 7 7 6 6 6 6 6 6 6 7 7 7 7 6 5 4 4 4 4 5 5 6 6 7 7 7 8 8 8 8 8 9 9 9 9 10 10 11 12 12 13 13 13 13 13 12 12 12 12 13 13 14 15 16 17 17 17
29 29 28 26 25 23 21 20 20 19 19 18 17 16 15 15 15 14 13 12 11 11 10 10 11 11 11 11 11 12 12 12 11 11 11 11 11 11 10 10 9 9 9 9 8 8 7 7 7 7 7 7 7 7 7 7 7 7 7 7 6 5 5 5 5 5 6 6 7 7 7 7 8 8 8 8 8 9 9 9 10 10 11 11 12 12 13 13 13 13 13 12 12 12 12 13 13 14 15 16 17 17 17
31 30 29 28 26 24 22 21 21 21 20 19 18 17 16 16 16 15 14 13 12 11 11 11 11 11 11 11 12 12 12 12 12 11 11 12 11 11 10 10 9 9 9 9 8 8 7 7 7 7 7 7 7 7 7 7 8 8 8 8 7 6 6 5 5 6 6 6 7 7 8 8 8 8 8 8 8 9 9 10 10 11 11 12 12 12 12 13 13 13 13 13 13 13 13 13 13 14 15 15 16 17 17
31 31 30 29 27 25 23 22 22 22 21 20 19 18 17 17 16 16 15 14 13 12 12 12 12 12 12 12 12 13 12 12 12 12 12 12 12 11 10 10 9 9 9 9 9 8 8 7 7 7 7 7 7 7 7 8 8 9 9 9 8 8 7 6 6 6 7 7 7 8 8 8 8 9 9 9 9 9 9 10 10 11 11 12 12 12 13 13 13 13 13 13 13 13 13 13 14 14 15 15 15 16 16
31 31 31 29 28 26 24 23 23 23 23 22 21 19 19 18 17 16 15 14 14 13 13 13 12 12 12 13 13 13 13 12 12 12 12 12 12 11 10 10 9 9 9 9 9 9 8 7 7 7 7 7 7 7 8 8 9 10 10 10 10 9 8 7 7 7 7 8 8 8 8 8 9 9 9 9 9 9 10 10 11 11 12 12 12 13 13 13 13 13 14 14 14 14 14 14 14 14 15 15 15 15 15
30 31 31 30 28 26 24 23 23 24 24 23 22 21 20 19 18 17 16 15 15 15 14 14 13 13 13 13 14 14 13 13 13 13 13 12 12 11 11 10 10 10 10 10 9 9 8 8 7 7 7 7 7 8 8 8 9 10 11 11 11 10 9 8 7 7 8 8 9 9 8 8 8 8 9 9 9 10 10 10 11 11 12 12 12 13 13 13 13 13 14 14 14 14 14 14 14 15 15 14 14 13 13
30 30 30 30 28 26 25 24 24 24 25 25 24 23 21 21 20 19 18 17 16 16 15 15 14 14 14 14 14 14 14 13 13 13 13 13 12 11 11 10 10 10 10 10 10 9 9 8 8 7 7 8 8 8 8 9 10 11 11 12 12 11 10 9 9 9 9 9 9 9 8 8 8 8 8 9 9 10 10 11 11 12 12 12 13 13 13 13 13 13 14 14 14 15 15 15 15 15 14 14 13 13 12
29 30 30 30 28 27 25 24 25 25 26 26 25 24 23 22 21 20 19 18 17 16 16 15 15 14 14 15 15 15 14 14 14 13 13 13 12 12 11 11 11 10 10 10 10 9 9 8 8 8 8 8 8 8 8 9 10 11 11 12 12 12 11 10 10 10 10 10 9 9 8 8 8 8 9 9 10 10 11 11 12 12 13 13 13 13 13 13 13 13 13 14 14 15 15 15 15 15 14 14 13 12 12
28 29 29 29 28 26 25 25 25 26 27 27 27 26 25 24 22 21 20 19 18 17 16 15 15 15 15 15 16 16 15 15 14 14 13 13 13 12 11 11 11 11 11 10 10 10 10 9 9 9 9 9 9 9 9 9 10 11 11 12 12 12 12 11 11 11 11 11 10 9 9 8 9 9 9 10 10 11 11 12 13 13 14 14 14 14 14 14 14 14 14 14 14 15 15 15 15 15 14 14 13 12 12
28 28 28 28 27 26 26 26 26 27 27 28 28 27 26 24 23 21 20 19 18 17 16 16 16 16 16 17 17 17 16 16 15 14 14 13 13 12 12 12 11 11 11 11 11 11 11 10 10 10 9 9 9 9 9 9 10 11 11 12 12 13 13 12 12 12 12 11 11 10 10 10 10 10 10 11 11 12 12 13 13 14 14 14 14 15 15 15 15 14 14 14 15 15 15 15 15 15 15 14 13 12 12
29 29 28 28 27 27 26 26 27 27 28 28 28 27 26 24 22 21 20 19 18 18 17 16 16 17 17 18 18 18 18 17 16 15 15 14 13 13 13 12 12 12 12 12 12 12 12 12 11 11 11 10 10 10 10 10 10 11 11 12 13 13 13 13 13 13 13 12 12 11 11 11 11 11 12 12 13 13 13 14 14 14 14 15 15 15 15 15 15 15 15 15 15 15 15 15 15 15 15 14 13 13 13
29 30 29 28 28 27 27 27 27 27 28 28 28 27 25 24 23 22 21 21 20 19 18 18 17 18 18 19 19 19 19 18 17 16 15 15 14 13 13 13 12 12 12 12 12 12 13 13 13 12 12 11 11 11 11 11 11 11 12 12 13 13 14 14 14 14 13 13 13 13 12 13 13 13 13 14 14 15 15 15 15 15 15 15 15 15 16 16 16 16 16 16 16 16 15 15 15 15 14 14 14 13 13
30 31 30 29 29 28 27 27 27 27 28 28 27 27 27 26 25 24 24 23 22 20 19 19 19 19 19 20 20 20 20 19 18 17 16 15 15 14 14 13 12 12 13 13 13 14 13 13 14 13 13 12 12 12 12 12 12 12 13 13 14 14 14 14 14 14 14 14 14 14 14 14 14 15 15 16 16 16 17 17 17 17 16 16 16 16 16 16 16 17 17 17 17 16 16 15 15 14 14 14 14 14 13
31 31 31 30 29 28 27 27 27 27 27 28 28 29 28 28 27 26 25 24 23 21 20 20 20 20 20 21 21 21 21 20 19 18 16 16 15 14 13 13 12 13 14 14 14 15 15 15 15 15 14 14 13 13 13 13 13 13 14 14 14 15 15 15 15 15 15 15 15 15 15 15 15 16 16 17 17 18 18 18 18 18 18 18 17 17 17 17 17 17 17 17 17 17 17 16 15 15 14 14 13 14 13
31 32 32 31 30 29 28 27 27 27 28 29 29 30 30 29 29 28 27 25 24 23 22 22 21 21 21 22 22 22 22 21 20 19 17 16 15 14 14 13 12 13 15 15 15 16 16 17 17 16 16 15 14 14 14 14 14 14 14 14 15 15 15 15 15 15 16 16 16 16 16 16 17 17 18 18 19 19 19 19 19 19 19 19 18 18 18 18 18 18 18 18 18 17 17 17 16 15 14 14 13 13 13
32 33 33 32 31 30 29 28 28 28 28 29 30 30 30 30 30 29 28 26 25 24 24 24 23 23 23 23 24 23 23 22 21 19 18 17 16 15 15 15 16 16 17 15 12 12 15 18 18 17 16 15 15 15 15 14 14 14 14 15 15 15 15 16 16 16 17 17 17 17 17 17 18 18 19 19 20 20 20 20 20 20 20 19 19 19 19 18 18 18 18 18 18 18 17 17 16 16 15 14 14 14 14
33 33 33 33 32 31 30 28 28 28 28 29 30 31 31 31 30 29 28 26 25 24 25 25 25 24 24 24 25 25 24 23 22 20 19 18 17 17 17 18 18 17 16 15 11 9 12 16 17 16 16 15 15 15 15 15 15 15 15 15 15 15 16 16 16 17 17 17 17 17 18 18 19 19 20 21 21 21 21 21 21 21 21 20 20 20 19 19 19 19 18 18 18 18 17 17 17 16 16 15 15 15 15
33 34 34 34 33 32 31 29 28 28 28 29 30 31 32 31 30 29 27 26 25 25 26 26 26 26 25 25 25 25 25 24 23 22 20 19 19 19 19 19 15 10 7 9 11 14 15 14 13 13 15 15 15 15 16 15 15 15 15 15 15 16 16 16 17 17 18 18 18 18 18 19 20 21 21 22 22 22 22 22 22 21 21 21 20 20 20 19 19 19 19 18 18 18 17 17 17 17 17 16 16 16 16
34 35 35 35 34 33 32 30 29 29 29 30 31 31 32 31 31 30 28 27 26 26 26 27 28 27 27 25 25 26 25 25 24 23 21 20 20 20 20 20 19 15 10 8 9 12 13 12 10 10 12 14 15 15 15 15 15 15 15 15 15 16 16 17 17 17 18 18 18 19 19 20 21 21 22 23 23 23 23 23 22 22 21 21 21 20 20 20 19 19 18 18 18 17 17 17 17 17 17 17 17 17 17
35 35 36 35 35 34 33 32 31 30 30 30 31 32 32 32 32 31 30 29 27 27 27 28 29 29 28 27 26 26 26 25 24 23 22 21 21 21 20 20 20 20 19 16 14 13 12 12 11 10 9 12 14 15 14 14 15 15 15 15 15 16 16 17 17 18 18 18 19 19 20 21 22 23 23 24 24 24 23 23 22 22 21 21 21 21 20 20 19 19 18 18 18 17 17 17 17 17 17 18 18 18 18
35 36 36 36 36 35 34 33 32 31 30 30 31 32 33 33 33 32 30 29 27 26 27 29 31 31 30 28 27 26 26 26 25 23 22 22 22 22 21 20 19 19 19 20 19 18 15 13 13 14 11 9 11 14 15 15 15 15 15 15 15 15 16 16 17 18 18 18 19 19 20 22 23 24 24 25 24 24 23 23 22 22 21 21 21 20 20 19 19 18 18 18 18 18 18 18 18 18 18 18 19 19 19
36 36 36 36 36 36 35 34 33 32 31 31 32 33 33 34 33 32 31 29 27 27 29 31 32 32 31 29 28 27 26 26 25 24 23 22 22 22 22 21 20 20 19 19 18 18 17 16 16 15 13 11 11 13 15 16 15 15 15 15 15 15 15 16 17 17 18 19 19 20 21 22 24 25 25 25 24 24 23 23 22 22 22 21 21 20 19 19 18 18 18 18 18 18 18 18 18 18 19 19 19 20 20
37 37 37 37 37 36 36 36 35 33 32 32 32 33 34 34 34 33 32 30 29 29 31 32 33 33 32 30 28 27 26 26 26 25 24 23 23 23 22 21 21 20 19 19 18 17 17 16 16 15 15 15 15 15 15 16 16 15 15 15 14 14 15 16 16 17 18 19 19 20 22 23 24 24 25 24 24 23 23 22 22 22 21 21 20 19 18 18 18 18 18 18 19 19 19 19 19 19 19 20 20 21 21
Wind_Direction
142 147 149 149 148 148 148 147 149 151 154 157 156 154 157 162 158 149 140 136 133 132 130 129 129 130 129 127 128 128 129 129 129 125 118 108 101 98 96 95 95 94 94 94 95 95 95 94 91 86 80 77 76 77 80 79 73 64 54 48 45 42 37 38 41 44 46 49 37 18 17 23 25 24 26 22 16 8 4 10 10 2 351 334 314 309 332 344 344 341 341 330 327 331 335 327 319 321 326 326 324 319 314
135 142 147 149 149 148 147 148 150 153 156 155 155 156 160 158 153 147 142 141 140 139 138 138 138 138 137 137 137 138 139 141 140 136 124 116 109 106 100 99 98 96 95 92 89 87 86 83 79 74 66 61 59 58 61 64 60 52 44 40 38 35 30 31 38 47 52 51 40 22 11 14 21 24 21 17 16 12 5 16 14 342 316 294 277 272 285 324 333 322 300 312 321 331 344 340 335 332 327 304 292 292 308
130 137 144 148 149 147 147 149 152 155 159 160 160 158 156 151 148 145 144 144 145 146 145 142 140 141 143 144 145 148 151 153 153 147 137 131 126 117 108 106 105 102 98 93 86 82 78 75 68 61 55 49 42 38 37 42 43 40 35 34 32 28 22 25 35 49 56 51 42 33 20 7 8 15 11 7 9 15 17 15 9 310 293 296 294 284 262 286 308 294 277 281 286 310 348 341 337 330 277 286 293 296 295
128 134 140 145 147 147 148 150 154 159 162 162 158 154 150 146 145 145 145 145 145 146 146 143 142 143 147 150 154 158 162 166 164 160 154 154 150 141 128 124 122 119 110 101 90 83 79 73 66 55 49 38 31 28 28 31 33 32 29 28 25 20 16 20 30 45 55 61 57 45 30 10 4 4 0 360 5 16 22 10 356 332 313 322 328 331 270 217 247 269 274 263 249 232 38 307 310 311 294 295 301 300 290
127 131 136 141 145 147 149 152 156 159 160 156 151 146 142 141 141 143 143 143 144 145 145 144 144 147 150 155 161 167 172 176 175 174 174 177 180 176 167 160 155 153 144 132 114 103 92 82 63 48 36 20 19 22 25 27 29 29 23 20 15 10 7 12 22 32 39 47 53 47 25 10 6 1 353 354 4 13 11 347 338 338 336 345 351 355 345 263 272 288 287 256 216 165 119 172 262 292 316 307 296 287 286
127 130 134 138 142 145 148 151 153 154 152 148 143 139 137 136 137 139 139 141 143 144 145 147 148 151 154 160 167 173 178 183 184 186 189 195 200 200 197 194 192 189 185 180 172 163 152 106 27 7 0 4 12 17 21 24 26 24 18 9 2 359 359 6 15 21 18 11 2 351 344 343 346 344 330 336 345 348 342 348 352 345 330 10 5 351 329 290 288 305 327 123 118 109 109 170 250 270 343 342 358 33 344
127 129 132 135 139 141 143 145 146 145 144 142 139 134 132 132 134 136 137 139 142 144 147 150 152 155 160 166 172 177 182 186 190 194 199 205 210 213 213 213 213 214 214 214 219 229 259 285 302 321 338 354 4 10 14 15 15 8 0 353 350 349 352 4 14 11 0 357 352 346 340 334 327 315 309 319 323 315 313 18 27 352 217 297 309 297 302 295 291 307 352 40 72 79 91 270 259 260 14 11 20 27 7
128 129 131 133 135 137 138 139 139 139 139 138 135 132 130 130 132 135 136 138 141 144 148 152 156 161 166 171 176 180 183 188 192 197 203 209 214 219 221 224 227 231 236 242 251 263 281 296 303 315 332 348 356 359 359 357 351 344 340 338 339 341 348 4 16 10 352 351 354 355 355 351 343 330 328 333 334 313 269 295 297 276 260 263 273 285 300 300 295 319 7 0 12 77 65 319 265 246 225 312 349 359 353
129 129 131 132 134 135 136 136 136 136 136 134 131 128 127 128 131 133 134 137 139 144 149 154 159 165 172 177 180 181 183 188 194 199 204 209 216 221 225 230 235 242 248 255 263 271 282 296 303 314 329 339 342 341 339 336 333 330 328 329 330 334 341 355 11 14 354 353 356 0 359 355 352 348 346 358 348 307 269 262 267 272 273 275 281 288 291 296 291 288 345 335 297 295 331 342 261 253 257 263 292 332 348
131 131 132 133 133 134 135 136 136 135 134 129 125 123 124 127 130 132 133 135 139 143 149 156 164 172 178 181 181 180 183 188 195 200 205 210 216 221 227 232 236 242 247 253 258 266 276 288 297 308 320 325 327 326 326 324 323 321 321 321 322 325 330 337 350 0 351 355 356 355 351 350 352 352 339 283 272 277 272 270 273 277 278 280 282 285 289 295 293 283 259 265 280 305 80 103 155 257 266 268 274 286 304
134 134 134 135 135 135 135 136 137 136 132 128 124 123 124 127 130 132 133 135 138 143 149 158 167 175 180 178 175 177 182 189 196 202 207 212 217 221 226 231 236 239 243 247 253 260 270 282 293 302 309 313 313 314 314 313 313 313 314 314 315 316 318 319 329 340 339 337 341 343 341 338 338 338 331 292 272 274 281 283 285 284 282 281 283 287 291 297 296 287 272 272 264 241 151 188 258 271 269 266 256 245 246
139 139 138 138 138 137 137 137 138 137 133 130 129 129 129 130 131 132 134 135 138 143 150 159 168 171 170 165 167 174 183 190 197 203 209 214 217 221 226 231 235 240 245 251 257 265 275 284 293 299 302 303 303 303 302 303 304 305 306 306 307 308 309 310 316 329 331 325 325 325 316 319 326 335 339 328 309 301 303 304 302 296 290 285 284 287 295 300 297 288 280 278 263 247 246 259 268 271 272 258 246 241 242
144 144 144 143 142 141 139 138 139 138 135 134 134 134 134 135 135 136 136 137 140 143 149 154 155 152 148 151 161 171 181 188 195 202 208 214 218 223 228 233 239 245 251 258 266 273 280 287 293 296 297 297 296 295 294 295 297 298 300 301 301 302 303 302 305 314 320 321 318 314 309 325 338 344 348 346 336 325 326 335 310 301 305 302 297 297 307 312 303 290 282 275 267 257 253 258 263 267 267 255 247 243 242
149 149 149 149 147 145 142 141 140 138 138 137 137 138 138 139 139 140 142 142 143 145 147 145 141 139 140 144 152 163 173 181 188 197 204 212 218 224 229 235 242 249 257 264 271 276 282 287 291 293 294 293 292 292 292 293 295 296 297 297 298 298 297 295 302 313 314 311 317 323 323 336 344 346 343 328 295 277 301 261 270 306 331 337 341 3 41 34 346 312 290 280 273 268 264 260 258 259 261 259 256 252 249
154 153 153 153 152 150 146 145 144 143 142 142 141 142 143 144 145 146 147 148 148 148 145 142 138 136 134 136 141 150 161 172 181 188 197 205 213 220 226 234 241 249 257 264 271 276 281 285 288 290 291 292 292 292 293 294 295 296 296 296 295 294 292 288 290 297 297 299 314 328 330 345 338 325 316 295 274 266 281 229 195 148 99 65 56 72 90 96 69 4 331 319 296 280 276 268 261 258 259 261 261 260 257
158 157 156 157 156 155 152 150 150 149 148 147 147 147 148 149 151 153 153 153 152 149 144 139 134 129 125 124 130 140 153 163 172 181 188 197 206 214 222 232 240 249 257 265 272 277 281 285 288 290 292 293 293 293 293 295 296 296 295 295 293 292 287 281 275 273 270 281 298 316 325 338 312 294 299 305 278 242 196 198 147 126 116 115 97 95 114 137 145 357 4 356 331 310 294 287 276 267 264 263 264 266 264
164 162 161 161 161 160 159 158 157 156 154 153 153 153 154 156 158 158 158 157 154 150 142 136 130 122 116 116 121 131 143 155 166 176 184 192 202 213 223 234 245 254 262 270 277 282 286 289 291 292 293 294 294 294 294 295 295 295 293 292 291 288 283 274 268 262 257 265 276 296 315 318 303 298 307 338 108 134 144 167 134 116 115 131 187 232 243 253 265 279 296 300 320 330 318 312 301 288 278 272 270 270 270
170 169 167 167 167 167 166 165 163 162 160 159 159 160 162 163 164 164 162 159 155 147 139 132 125 120 116 116 120 126 140 154 167 177 187 197 209 223 236 249 259 268 275 280 285 288 291 293 294 295 295 295 294 294 295 295 294 292 291 289 288 285 277 267 259 255 249 248 233 219 302 300 309 304 239 129 118 122 153 189 203 201 215 258 267 274 279 278 275 273 273 276 285 298 307 310 308 303 297 290 284 280 278
177 175 174 173 173 174 174 173 171 169 167 165 166 166 168 170 171 169 166 162 154 145 136 132 127 125 125 124 127 136 149 164 180 192 204 219 235 247 259 268 276 281 285 288 291 293 295 296 296 297 297 296 295 294 295 294 293 290 288 286 283 278 267 259 252 246 237 228 214 198 148 139 132 153 170 162 160 173 203 215 231 249 264 272 277 281 284 284 283 280 276 275 277 281 285 293 299 301 301 298 294 291 288
184 182 180 179 179 179 180 180 178 176 174 173 172 173 175 176 176 173 169 163 155 147 141 138 137 139 143 146 155 167 183 197 209 223 235 248 261 270 277 282 286 288 290 292 294 295 297 298 299 299 299 298 297 296 295 293 291 288 286 282 277 267 250 246 242 233 222 219 214 203 169 146 139 161 181 184 191 205 220 225 231 241 255 266 274 280 285 285 285 283 279 278 279 281 283 287 292 297 298 299 298 296 295
189 188 187 185 185 185 186 186 186 185 182 179 178 179 180 180 178 175 172 166 161 156 154 153 156 161 174 187 198 210 220 229 238 246 255 264 272 278 281 284 287 288 291 294 296 298 299 300 301 301 301 299 298 297 295 292 290 287 283 278 269 253 229 222 219 215 208 215 212 204 195 190 191 203 210 212 217 224 232 238 241 247 256 265 275 281 284 285 285 284 283 282 283 284 285 286 288 292 294 296 298 298 298
194 194 192 191 190 190 191 193 195 195 192 188 185 184 183 182 180 178 176 174 171 169 169 170 176 185 196 209 216 222 230 237 243 249 257 264 270 275 279 284 288 291 294 298 300 301 302 303 303 302 302 301 299 297 295 292 289 285 280 274 262 243 221 213 212 211 204 210 208 206 209 214 222 229 230 231 234 239 245 250 254 258 264 269 274 278 281 284 286 287 288 286 285 285 286 286 287 289 291 293 294 296 297
198 198 197 196 195 194 196 199 202 204 202 197 192 189 186 183 182 183 184 183 181 181 181 185 193 203 212 220 224 227 232 238 243 248 254 262 269 275 281 287 292 296 299 302 303 304 304 304 304 303 302 301 299 297 294 291 287 282 277 270 258 242 222 217 219 220 219 218 218 218 220 226 233 239 241 243 245 248 252 257 260 263 269 273 275 276 277 281 285 288 289 289 289 288 288 288 288 289 290 291 292 293 295
202 201 201 199 198 198 199 203 207 210 210 206 201 195 190 188 186 187 189 190 189 190 192 198 208 218 225 230 232 235 238 241 247 252 258 265 275 282 289 294 299 302 304 305 305 306 305 305 304 303 302 300 298 296 292 288 283 278 272 266 256 242 226 219 221 225 227 229 229 230 232 235 240 245 250 253 255 256 257 260 262 265 269 275 278 278 278 280 283 286 288 291 292 293 292 292 291 291 291 291 292 293 294
205 205 204 203 202 201 203 205 209 213 214 212 207 201 196 192 191 191 192 194 196 198 202 210 219 229 236 240 243 245 246 250 255 262 270 277 285 293 298 302 304 306 306 306 306 306 306 306 305 303 301 299 297 293 289 284 279 274 268 263 255 245 232 224 224 228 232 234 237 239 242 245 248 253 257 261 262 262 262 264 266 269 270 274 278 281 283 283 283 285 287 290 293 295 296 296 296 295 294 293 293 294 295
208 208 207 206 205 204 206 207 210 213 214 214 211 207 202 198 196 195 196 198 202 206 213 219 228 237 244 248 251 254 257 260 266 273 281 290 297 302 305 307 307 307 307 307 307 307 307 306 305 303 300 297 294 290 284 279 274 270 265 259 254 247 239 230 227 230 236 240 243 246 250 253 256 261 265 267 268 268 268 269 270 272 275 276 279 282 285 286 287 287 288 291 294 296 297 298 298 298 297 295 295 295 296
210 211 210 209 208 208 208 209 210 212 214 215 214 211 206 203 201 200 201 203 209 215 223 230 237 244 250 255 259 261 265 270 275 282 291 298 303 306 308 307 307 307 307 307 306 307 307 306 305 303 299 296 291 285 279 274 270 266 262 257 251 247 243 236 233 233 238 243 248 252 255 260 264 267 271 275 277 277 277 277 277 277 280 281 282 284 287 289 290 290 292 294 296 297 298 298 298 298 297 296 296 297 297
212 212 212 211 210 210 209 210 211 211 212 214 214 213 209 207 204 204 205 208 215 224 232 239 245 251 256 260 263 266 270 275 281 289 297 302 305 306 306 306 305 306 305 306 306 306 306 305 304 301 298 293 286 279 272 268 266 262 259 254 248 243 241 239 238 238 241 246 251 256 260 264 268 273 278 283 286 287 287 287 287 286 286 286 287 288 290 292 293 294 296 297 298 298 298 298 298 297 296 296 296 296 297
214 214 214 213 212 212 211 211 211 211 212 212 212 212 210 206 205 206 208 213 221 230 238 246 251 256 259 262 265 268 272 278 285 293 299 303 304 304 304 304 304 304 304 304 304 304 304 304 302 300 296 289 280 272 268 265 263 260 256 251 245 240 238 239 241 243 246 250 254 259 264 268 272 276 280 284 287 290 292 293 294 293 292 292 292 294 294 295 296 297 299 300 300 300 299 298 297 296 295 296 296 296 296
216 216 215 215 215 214 213 212 211 211 212 212 212 210 207 204 203 206 210 216 224 234 241 248 252 257 260 262 264 268 273 280 289 296 300 302 303 303 303 303 304 304 304 303 303 303 303 302 300 298 293 285 276 268 264 263 261 259 254 249 244 240 239 240 243 246 251 255 259 264 268 272 275 279 281 284 286 289 292 293 295 294 295 295 296 297 298 298 299 300 300 302 302 302 301 300 299 298 297 297 296 296 296
217 217 217 217 216 216 214 213 211 211 212 212 212 209 205 202 201 205 211 218 226 234 241 246 251 255 258 261 264 269 275 283 291 297 300 301 301 302 302 303 304 303 303 302 301 302 301 301 299 295 290 281 271 264 261 260 259 256 253 249 246 244 244 245 247 251 256 260 265 269 272 275 278 281 283 285 287 289 291 293 294 295 295 296 297 298 299 301 301 302 303 303 304 304 303 303 302 301 300 299 298 298 298
218 218 218 219 218 217 215 214 212 212 212 212 211 209 205 201 201 205 212 220 228 234 240 245 250 253 257 260 264 270 278 285 292 296 298 299 300 301 302 303 303 302 301 301 300 300 300 299 296 293 288 279 268 261 258 257 256 255 253 252 251 250 251 253 254 258 261 264 268 272 275 278 281 283 285 287 289 290 291 293 294 294 294 295 296 297 299 301 302 303 304 305 306 305 305 304 304 303 302 301 300 300 301
220 219 220 220 220 219 217 216 215 213 212 212 212 210 207 205 206 210 216 223 229 236 241 246 250 254 257 261 266 272 280 286 291 293 295 296 298 300 302 302 301 301 300 299 298 298 298 297 294 291 285 277 267 259 255 254 254 254 255 255 256 256 258 259 261 263 265 267 270 273 276 278 280 283 285 287 289 290 291 293 293 293 294 294 295 296 298 300 301 303 305 306 306 306 306 305 305 304 303 303 302 302 302
221 221 222 222 221 220 219 218 217 216 214 214 213 212 211 211 213 217 222 228 234 240 245 249 253 256 258 262 267 274 281 285 289 290 291 294 296 299 300 300 299 297 297 296 296 296 295 294 292 288 283 275 265 256 252 250 251 254 257 258 260 260 262 262 264 264 266 268 269 271 273 276 278 281 284 286 288 290 291 291 292 293 293 294 295 296 298 299 301 303 304 306 306 307 306 306 305 305 304 304 304 304 304
222 223 223 223 222 221 220 220 219 218 217 217 216 215 216 217 219 223 228 234 239 245 250 253 256 258 259 263 268 274 279 283 285 287 289 293 296 297 297 296 295 294 294 293 292 292 291 289 288 285 280 272 262 254 249 247 249 254 258 261 263 264 263 263 262 262 263 263 265 268 270 274 278 281 284 286 288 289 290 290 291 292 293 294 295 296 298 299 301 303 304 305 306 306 306 306 306 305 306 305 306 306 306
224 224 224 224 223 222 221 221 220 219 220 220 219 219 220 221 224 228 233 238 243 249 253 257 258 259 260 263 268 274 278 281 282 284 288 292 294 295 295 293 292 291 290 289 288 287 286 285 283 281 277 269 261 252 247 245 247 252 258 262 264 263 261 258 256 256 256 259 263 267 271 276 279 282 285 286 288 289 290 290 291 291 293 294 295 297 299 300 301 303 304 304 305 305 305 306 306 306 306 307 307 308 308
224 224 225 225 224 224 222 221 221 221 222 222 222 223 223 224 227 230 235 241 246 250 255 257 258 259 261 264 268 272 275 278 280 284 287 291 293 294 292 290 288 287 286 285 285 282 281 280 279 277 272 267 259 251 246 246 246 250 254 258 259 257 253 251 251 253 257 262 267 272 276 279 282 285 286 288 288 289 290 290 291 293 294 295 296 298 299 300 301 302 303 304 304 304 304 305 305 306 306 307 308 309 309
226 225 225 226 225 225 223 223 222 222 223 224 224 225 225 227 229 232 236 242 247 251 254 256 257 258 259 262 266 270 273 275 279 282 287 290 292 291 289 288 285 283 283 282 281 279 277 276 274 272 268 263 257 250 246 245 245 246 248 250 248 245 243 247 250 257 262 268 273 277 280 282 285 286 288 289 290 290 291 292 293 294 295 296 297 298 299 300 301 302 303 303 303 303 303 304 304 305 306 307 308 308 309
229 227 226 226 226 225 224 224 224 224 225 225 226 226 228 229 230 233 236 241 246 250 252 254 256 256 257 259 263 267 270 273 276 281 285 288 289 288 287 285 283 280 279 278 277 275 274 272 270 268 264 260 255 249 247 244 242 241 240 237 233 232 236 244 252 260 266 272 276 280 282 284 285 287 288 289 290 291 292 294 294 295 296 296 297 298 299 299 300 301 302 302 302 302 302 303 303 304 305 306 307 308 308
232 230 228 227 227 226 225 225 225 225 226 226 227 228 229 230 231 233 236 240 245 249 251 252 254 254 255 257 260 263 266 269 273 278 282 284 285 285 285 283 280 277 275 273 272 272 270 269 267 265 262 258 254 249 246 243 239 235 230 225 222 223 229 239 250 258 265 271 275 279 281 284 285 286 287 288 289 291 292 293 294 295 296 296 297 297 298 299 300 301 302 302 302 303 302 302 302 302 303 305 306 307 308
234 232 230 229 228 227 226 225 226 227 228 228 228 229 230 231 232 234 236 240 244 248 250 251 252 254 254 255 257 259 262 266 270 275 278 281 282 283 282 281 277 273 270 269 268 267 267 265 264 264 262 259 255 250 246 242 236 229 224 219 216 218 225 235 246 256 264 270 274 278 281 283 284 285 286 287 288 289 290 292 294 295 296 297 298 298 299 300 301 302 302 303 303 303 303 302 301 300 301 302 304 305 306
235 234 232 231 230 228 227 226 226 228 229 230 230 231 232 233 234 235 236 239 243 246 249 250 251 252 253 253 254 256 259 263 267 272 276 278 279 280 279 277 274 270 267 265 264 263 263 262 262 263 263 261 258 252 246 240 233 226 220 216 215 219 225 235 246 258 267 274 277 279 281 283 284 286 286 286 287 287 289 291 294 296 298 299 300 300 301 302 302 303 304 304 304 304 303 302 300 299 299 300 301 303 304
236 235 234 233 232 230 228 227 227 228 231 232 232 232 233 234 235 235 236 239 242 245 247 248 250 250 251 251 252 253 256 260 265 269 273 275 277 277 276 274 270 266 264 262 261 260 260 259 260 262 264 263 259 253 247 240 232 225 219 217 218 222 228 238 250 263 272 278 280 280 281 282 284 286 287 288 288 289 291 292 295 298 299 301 301 302 302 303 303 304 304 304 305 304 304 302 301 299 298 298 299 300 301
237 235 235 234 233 232 230 228 227 228 231 233 233 234 234 234 235 235 235 238 241 243 245 247 248 249 249 250 250 252 254 258 262 267 270 272 274 274 272 270 266 263 261 259 259 257 257 256 258 261 264 263 258 252 247 239 231 225 221 220 222 226 233 242 254 267 276 280 281 280 280 281 284 285 287 289 290 291 292 295 296 298 299 301 301 302 302 302 303 304 304 304 305 305 304 303 301 300 299 298 297 297 298
236 235 234 234 234 232 230 228 227 228 230 232 234 234 234 234 234 233 234 236 239 242 244 245 247 248 249 249 249 250 252 255 259 263 267 269 270 270 269 267 264 261 259 257 256 255 254 255 256 259 261 261 258 252 247 239 232 228 226 226 228 233 239 248 259 270 278 282 283 282 283 283 285 286 288 289 290 292 294 295 297 299 300 301 302 302 302 302 302 302 303 304 304 304 304 303 302 300 299 297 295 294 294
236 235 234 234 234 232 231 228 227 227 229 231 233 234 234 234 233 233 233 235 238 241 243 245 246 247 248 248 248 248 250 252 256 259 263 265 266 266 265 263 261 258 256 254 253 253 252 253 254 256 259 259 257 253 248 241 235 232 231 232 235 240 247 256 265 273 280 284 286 287 288 290 290 291 290 291 292 293 295 296 298 300 302 303 303 303 302 302 302 302 302 303 304 305 304 303 302 300 299 297 294 291 289
236 235 235 235 234 233 231 229 227 227 228 230 232 233 234 234 233 232 233 235 238 241 244 247 248 248 247 247 246 247 248 250 253 256 259 261 262 261 261 259 258 256 253 251 250 250 249 250 251 254 256 258 256 252 248 242 239 237 235 237 242 247 253 262 270 277 283 287 291 293 295 295 295 294 294 293 294 295 296 298 300 302 303 304 305 304 304 303 302 302 302 303 304 305 305 304 302 300 298 296 292 289 286
237 237 236 236 236 234 232 230 227 227 227 229 231 233 235 235 235 234 235 237 239 242 245 248 249 248 247 246 245 245 247 248 251 254 256 257 258 257 257 255 255 254 252 250 248 247 247 248 249 252 254 256 255 252 249 246 243 241 240 244 249 253 259 267 273 280 285 290 294 297 298 299 298 298 297 296 296 297 298 300 301 303 304 305 305 305 305 304 303 303 303 303 304 304 305 304 302 300 297 294 290 287 284
238 238 238 237 237 236 234 231 229 228 227 229 231 234 237 237 237 237 237 239 241 243 245 247 248 247 245 244 244 244 246 247 250 252 254 254 253 254 254 254 252 251 250 248 247 246 247 248 249 251 253 254 254 253 252 250 248 246 248 250 254 259 265 271 276 281 286 290 294 297 299 300 300 300 300 299 299 299 300 301 302 304 305 305 305 305 305 305 304 304 304 304 304 304 304 303 302 299 296 293 289 285 282
239 239 238 238 238 237 235 233 231 229 229 230 233 235 237 238 238 237 237 238 239 241 243 245 246 245 244 242 243 244 245 246 248 250 251 250 250 250 251 251 251 250 248 248 248 247 248 248 250 251 253 254 254 254 253 253 251 251 253 254 258 263 269 274 278 282 286 289 293 296 298 300 301 301 301 301 301 301 302 303 304 305 306 306 306 306 305 305 305 305 304 304 303 303 303 302 300 298 295 291 287 284 282
241 241 241 240 240 239 238 236 234 232 231 232 233 235 236 236 236 235 235 236 238 239 241 241 243 244 244 243 243 244 244 245 247 248 247 249 250 250 250 250 250 248 246 246 247 248 250 251 252 253 253 253 253 254 254 254 254 254 255 258 262 266 271 275 279 282 285 288 290 293 296 298 300 302 302 302 303 303 304 305 306 307 308 307 307 307 306 306 305 305 305 304 303 302 301 300 298 296 292 289 286 283 281
244 244 244 243 243 242 241 239 237 235 234 232 233 233 234 234 234 234 234 235 237 239 241 242 242 243 244 244 244 243 243 244 245 247 247 248 249 248 247 247 245 243 242 242 244 246 249 250 252 254 253 253 252 253 254 254 255 255 258 261 264 267 271 275 279 282 283 286 288 291 294 297 299 301 302 302 303 303 304 306 307 308 308 308 308 307 306 306 305 305 304 303 302 301 300 299 297 294 291 287 284 281 279
246 246 246 246 245 244 243 242 240 238 237 234 233 233 234 233 233 233 233 234 236 239 241 242 243 242 243 242 242 242 243 243 244 245 246 246 244 243 241 237 233 235 239 236 239 244 246 246 249 251 253 253 253 253 253 254 255 256 259 261 264 267 271 275 278 280 282 284 286 289 292 295 298 299 300 300 301 302 304 306 307 308 308 308 307 307 306 306 305 304 303 302 301 300 299 298 296 294 290 287 283 280 278
248 248 248 248 247 246 245 244 243 241 240 238 237 236 236 235 234 233 233 234 235 237 239 242 242 242 242 241 240 240 241 242 242 242 242 242 240 236 233 231 232 237 243 238 236 240 244 245 246 248 252 253 254 254 254 255 256 257 259 261 264 268 271 274 276 278 279 281 284 288 291 294 296 297 298 299 300 302 304 305 306 307 307 306 306 306 306 305 304 303 302 300 299 298 297 296 295 293 291 287 284 281 278
249 250 250 250 249 248 247 246 245 244 243 241 240 239 238 237 236 235 234 234 235 237 239 241 242 242 241 241 241 241 240 241 241 241 239 239 238 235 232 234 236 238 241 240 236 236 244 248 250 251 250 250 251 252 254 255 257 259 261 263 266 268 271 273 275 276 277 280 283 286 289 291 293 295 296 297 299 301 302 304 304 305 305 305 305 305 304 304 303 301 300 299 298 296 295 294 294 292 291 289 286 282 280
250 251 251 251 250 249 248 248 247 246 245 244 242 241 240 239 238 237 236 236 237 238 241 242 243 243 242 242 242 242 241 241 241 241 239 238 238 238 237 236 233 228 230 231 232 237 244 248 249 247 247 247 247 248 252 255 258 260 262 265 267 269 271 272 274 275 277 279 281 283 285 288 290 291 294 296 298 299 301 301 302 303 303 304 304 304 303 302 301 300 299 297 296 295 294 293 293 291 291 289 287 284 282
250 251 252 252 251 251 250 249 249 248 248 246 245 243 242 241 239 238 236 236 237 239 241 244 245 245 245 243 242 242 241 241 241 241 240 238 238 239 239 238 237 235 235 229 232 237 241 246 240 234 244 247 246 245 249 253 256 259 262 264 267 269 271 272 273 274 276 277 279 281 283 285 287 290 292 294 296 297 298 299 300 301 302 302 302 302 302 301 299 298 297 295 294 293 292 292 291 290 289 288 287 285 284
250 251 252 252 252 252 251 250 250 250 249 248 247 245 243 241 239 237 236 236 237 239 242 244 245 245 245 243 241 240 240 240 239 240 239 239 239 239 239 240 241 242 241 244 247 247 245 245 237 232 244 247 246 245 246 248 252 255 259 262 265 268 270 272 272 273 274 275 277 279 282 284 286 289 290 292 294 295 296 297 299 299 300 301 301 300 300 299 297 296 295 293 292 291 291 290 289 289 288 287 286 285 285
251 252 252 252 252 252 252 251 251 251 251 250 248 246 244 241 239 237 236 236 237 239 242 244 244 245 244 242 239 237 238 238 239 238 238 238 239 239 239 239 239 239 241 244 247 249 250 247 243 243 245 241 243 246 248 248 249 252 255 259 263 266 268 270 271 272 273 274 275 278 280 283 286 288 289 290 292 293 295 296 297 298 299 299 299 298 298 296 295 294 293 292 291 290 290 289 288 288 287 286 286 285 285
252 252 252 252 252 252 252 251 251 251 251 250 249 247 245 242 240 238 236 235 236 238 241 242 243 244 244 242 237 234 235 237 238 238 238 237 238 239 240 239 238 239 239 241 243 246 247 248 248 247 246 244 245 247 249 249 250 251 253 256 259 263 266 268 270 271 272 273 274 276 279 282 284 286 287 289 290 292 293 295 296 297 297 297 297 296 295 294 294 293 292 291 290 290 289 289 288 287 287 286 286 286 286
252 252 252 251 251 251 251 251 251 251 251 250 249 247 245 243 241 239 236 235 235 237 239 240 241 243 244 242 237 233 233 236 238 239 238 238 239 240 240 240 239 239 239 240 242 243 244 245 247 248 248 249 253 254 252 251 251 251 252 253 256 260 263 265 267 269 271 272 273 275 277 280 282 284 285 287 288 290 292 294 295 295 295 295 295 294 293 292 292 292 291 291 291 290 290 290 289 288 288 287 287 287 286